[[{"header":{"parameterUnit":"m.s-1","parameterCategory":1,"la1":30.2991,"la2":30.254,"lo1":-89.0895,"lo2":-89.0444,"dy":0.0017,"dx":0.0017,"nx":28,"ny":28,"refTime":"2025-08-10T03:00:00:Z","depth":0,"parameterNumber":2,"parameterNumberName":"U-component_of_WINDS"},"data":[0,0,0,0,0,0,0,0,0,0,0,0,0,0,0,0,0,0,0,0,0,0,0,0,0,0,0,0,0,0,0,0,0,0,0,0,0,0,0,0,0,0,0,0,0,0,0,0,0,0,0,0,0,0,0,0,0,0,-4.3016,-4.3016,0,-4.3032,-4.3032,-4.3032,-4.299,-4.2989,-4.2988,-4.2986,-4.3001,-4.3003,-4.3004,0,0,0,0,0,0,0,0,0,0,0,0,0,-4.2948,-4.2949,-4.3016,-4.3016,-4.3016,-4.3032,-4.3032,-4.3032,-4.299,-4.2989,-4.2987,-4.2986,-4.3001,-4.3002,-4.3004,0,0,0,0,0,0,0,0,0,0,0,0,0,-4.2972,-4.295,-4.3016,-4.2997,-4.2996,-4.3032,-4.3032,-4.3032,-4.2991,-4.2989,-4.2987,-4.2985,-4.3,-4.3002,-4.3005,-4.3059,0,0,-4.3012,-4.3013,0,0,0,0,0,0,0,0,-4.2971,-4.2975,-4.3,-4.2999,-4.2997,-4.3007,-4.3014,-4.3041,-4.2991,-4.2993,-4.2986,-4.2984,-4.3005,-4.3006,-4.3014,-4.306,-4.306,-4.3012,-4.3014,-4.3015,-4.3015,0,0,0,0,0,0,0,-4.2969,-4.2974,-4.3022,-4.3,-4.2998,-4.2988,-4.2989,-4.3019,-4.3009,-4.2992,-4.2989,-4.2992,-4.3003,-4.3012,-4.3014,-4.3061,-4.3012,-4.3014,-4.3016,-4.3017,-4.3152,-4.3154,0,0,0,0,0,0,-4.297,-4.2973,-4.3022,-4.3023,-4.2979,-4.2991,-4.2992,-4.3006,-4.3009,-4.3007,-4.2994,-4.299,-4.3008,-4.3011,-4.3014,-4.3077,-4.3015,-4.3017,-4.3018,-4.315,-4.3152,-4.3155,0,0,0,0,0,0,-4.2969,-4.2975,-4.3021,-4.2997,-4.3002,-4.2994,-4.301,-4.3007,-4.3015,-4.301,-4.3008,-4.3003,-4.3007,-4.3011,-4.3048,-4.3077,-4.3018,-4.302,-4.3147,-4.3151,-4.3154,-4.3203,0,0,0,0,0,0,-4.2967,-4.2975,-4.2995,-4.2998,-4.3003,-4.3055,-4.3011,-4.3009,-4.302,-4.3015,-4.3019,-4.3017,-4.3006,-4.3045,-4.3051,-4.3079,-4.3022,-4.3145,-4.3149,-4.3153,-4.3199,-4.3208,-4.3215,0,0,0,0,0,-4.2965,-4.3008,-4.2996,-4.3002,-4.3029,-4.3057,-4.306,-4.3046,-4.3022,-4.3042,-4.3039,-4.3017,-4.3074,-4.3049,-4.3055,-4.3085,-4.3143,-4.3148,-4.3152,-4.3195,-4.3206,-4.3215,0,0,0,0,0,0,-4.3007,-4.3008,-4.2995,-4.304,-4.3049,-4.3049,-4.3074,-4.3058,-4.3073,-4.3067,-4.3049,-4.3051,-4.3091,-4.3092,-4.3065,-4.3138,-4.3104,-4.311,-4.3135,-4.3145,-4.3153,-4.315,-4.3024,0,0,0,0,0,-4.3023,-4.3046,-4.3045,-4.3085,-4.309,-4.3082,-4.3093,-4.3082,-4.309,-4.3093,-4.3093,-4.3101,-4.312,-4.3133,-4.3151,-4.3201,-4.32,-4.3224,-4.3232,-4.3239,-4.3244,-4.3269,-4.3279,-4.3171,-4.3171,-4.317,0,0,-4.3053,-4.3056,-4.3071,-4.3094,-4.3099,-4.3122,-4.3085,-4.3111,-4.3129,-4.3097,-4.3132,-4.3133,-4.3141,-4.3184,-4.3203,-4.3186,-4.3274,-4.3245,-4.3251,-4.3251,-4.3275,-4.3285,-4.3294,-4.3174,-4.3173,-4.3173,0,0,-4.312,-4.3126,-4.3159,-4.3166,-4.3175,-4.317,-4.3179,-4.3182,-4.3181,-4.3217,-4.3194,-4.3214,-4.3249,-4.3255,-4.3263,-4.3336,-4.3315,-4.3342,-4.3383,-4.3408,-4.3417,-4.3424,-4.3448,-4.3457,-4.3348,-4.3348,-4.3348,0,-4.3156,-4.3191,-4.3179,-4.3207,-4.3217,-4.3192,-4.3226,-4.3233,-4.3247,-4.3254,-4.3236,-4.3279,-4.3282,-4.3327,-4.3345,-4.3353,-4.3361,-4.334,-4.3417,-4.3424,-4.3431,-4.3454,-4.3463,-4.3351,-4.335,-4.335,-4.335,0,-4.3235,-4.326,-4.3286,-4.3301,-4.3315,-4.3346,-4.3338,-4.3353,-4.3342,-4.3339,-4.3375,-4.338,-4.3398,-4.3408,-4.3397,-4.3451,-4.344,-4.342,-4.3385,-4.3445,-4.3465,-4.3474,-4.3355,-4.3354,-4.3353,-4.3352,0,0,-4.3325,-4.3335,-4.3344,-4.3351,-4.3361,-4.338,-4.341,-4.3429,-4.3442,-4.3454,-4.3478,-4.3509,-4.349,-4.3499,-4.349,-4.3512,-4.3568,-4.3489,-4.3489,-4.3501,-4.3626,-4.3638,-4.3649,-4.3556,-4.3558,-4.3559,-4.3624,0,-4.3389,-4.3441,-4.3432,-4.3482,-4.3505,-4.3483,-4.3509,-4.3518,-4.3517,-4.3536,-4.3535,-4.3556,-4.3531,-4.3536,-4.3558,-4.3556,-4.3592,-4.3552,-4.3576,-4.3577,-4.3571,-4.366,-4.3673,-4.3734,-4.3632,-4.3634,-4.3635,0,-4.347,-4.3485,-4.3538,-4.3545,-4.3554,-4.3578,-4.3595,-4.3614,-4.3624,-4.3621,-4.3633,-4.3619,-4.365,-4.3618,-4.3658,-4.3631,-4.3642,-4.3643,-4.3645,-4.3644,-4.3607,-4.3658,-4.3753,-4.3761,-4.3648,-4.3647,-4.3646,0,-4.3527,-4.3562,-4.3598,-4.3605,-4.3614,-4.3632,-4.3636,-4.3645,-4.3657,-4.3672,-4.3679,-4.3698,-4.3707,-4.3722,-4.3714,-4.3691,-4.3755,-4.3723,-4.3752,-4.3753,-4.3763,-4.3762,-4.3858,-4.3776,-4.3776,-4.3776,-4.3776,0,-4.3598,-4.363,-4.3624,-4.3645,-4.3682,-4.3672,-4.3708,-4.371,-4.3718,-4.374,-4.3723,-4.3744,-4.3733,-4.3753,-4.3748,-4.3781,-4.3786,-4.3784,-4.3781,-4.3784,-4.3784,-4.3787,-4.3781,-4.3778,-4.3778,-4.3777,-4.3777,0,-4.3666,-4.3663,-4.3701,-4.3708,-4.3711,-4.3737,-4.3742,-4.3763,-4.3762,-4.3789,-4.3795,-4.3793,-4.3816,-4.3811,-4.3835,-4.3831,-4.3873,-4.3867,-4.387,-4.3867,-4.3896,-4.3892,-4.3995,-4.4007,-4.392,-4.3921,-4.3921,0,-4.3709,-4.3734,-4.3744,-4.3758,-4.3764,-4.3787,-4.3799,-4.3792,-4.3806,-4.382,-4.3839,-4.386,-4.3876,-4.3914,-4.3914,-4.3933,-4.3925,-4.396,-4.3928,-4.3929,-4.3923,-4.392,-4.3922,-4.3965,-4.3966,-4.3967,-4.3968,0,-4.3786,-4.3784,-4.3803,-4.3822,-4.3838,-4.3853,-4.3866,-4.3878,-4.3872,-4.3888,-4.3912,-4.3925,-4.3951,-4.3972,-4.399,-4.3994,-4.398,-4.3979,-4.3986,-4.3987,-4.3986,-4.3984,-4.3884,-4.3976,-4.3975,-4.3974,-4.3974,-4.3973,-4.3841,-4.3862,-4.3873,-4.3895,-4.3904,-4.3918,-4.3937,-4.3939,-4.3959,-4.398,-4.3975,-4.4001,-4.4012,-4.4034,-4.4041,-4.4062,-4.4048,-4.4059,-4.4062,-4.4064,-4.4066,-4.3986,-4.4065,-4.4065,-4.4065,-4.4065,-4.4065,0,-4.3914,-4.3921,-4.3942,-4.3961,-4.3979,-4.3967,-4.3981,-4.3996,-4.4019,-4.4031,-4.4048,-4.4075,-4.4097,-4.41,-4.412,-4.4135,-4.4129,-4.414,-4.4137,-4.4138,-4.4078,-4.4068,-4.4145,-4.4145,-4.4145,-4.4145,-4.4145,-4.4145,-4.3954,-4.3988,-4.3988,-4.4028,-4.4034,-4.406,-4.4069,-4.4081,-4.409,-4.4122,-4.4139,-4.4142,-4.415,-4.4171,-4.419,-4.419,-4.4197,-4.4211,-4.4208,-4.4151,-4.4143,-4.4135,-4.4126,-4.4213,-4.4213,-4.4266,-4.4267,-4.4267]},{"header":{"parameterUnit":"m.s-1","parameterCategory":1,"la1":30.2991,"la2":30.254,"lo1":-89.0895,"lo2":-89.0444,"dy":0.0017,"dx":0.0017,"nx":28,"ny":28,"refTime":"2025-08-10T03:00:00:Z","depth":0,"parameterNumber":3,"parameterNumberName":"V-component_of_WINDS"},"data":[0,0,0,0,0,0,0,0,0,0,0,0,0,0,0,0,0,0,0,0,0,0,0,0,0,0,0,0,0,0,0,0,0,0,0,0,0,0,0,0,0,0,0,0,0,0,0,0,0,0,0,0,0,0,0,0,0,0,2.6752,2.6751,0,2.6721,2.6721,2.672,2.6696,2.6695,2.6695,2.6695,2.666,2.6659,2.6659,0,0,0,0,0,0,0,0,0,0,0,0,0,2.6787,2.6787,2.6752,2.6751,2.6751,2.6721,2.672,2.672,2.6696,2.6695,2.6695,2.6695,2.666,2.6659,2.6658,0,0,0,0,0,0,0,0,0,0,0,0,0,2.6765,2.6786,2.6752,2.6735,2.6733,2.6721,2.672,2.672,2.6696,2.6695,2.6695,2.6695,2.666,2.6659,2.6658,2.6659,0,0,2.6655,2.6655,0,0,0,0,0,0,0,0,2.6767,2.6764,2.6738,2.6736,2.6734,2.6712,2.672,2.6699,2.6696,2.671,2.6695,2.6695,2.6677,2.6675,2.667,2.6657,2.6656,2.6655,2.6654,2.6654,2.6654,0,0,0,0,0,0,0,2.6768,2.6765,2.6739,2.6738,2.6735,2.6729,2.6725,2.6716,2.6696,2.6709,2.6707,2.6704,2.6676,2.6671,2.6669,2.6655,2.6655,2.6654,2.6653,2.6653,2.6643,2.6643,0,0,0,0,0,0,2.6773,2.6767,2.674,2.6738,2.675,2.6728,2.6724,2.6719,2.6696,2.6692,2.6704,2.6703,2.6673,2.667,2.6667,2.6667,2.6654,2.6653,2.6652,2.6642,2.6643,2.6643,0,0,0,0,0,0,2.6774,2.6771,2.6741,2.6752,2.6748,2.6728,2.6723,2.6719,2.6714,2.6692,2.6688,2.6703,2.6672,2.6669,2.6662,2.6665,2.6652,2.6651,2.6642,2.6642,2.6643,2.6666,0,0,0,0,0,0,2.6775,2.6771,2.6771,2.6752,2.6747,2.6737,2.6723,2.6719,2.6712,2.671,2.669,2.6686,2.6672,2.6663,2.6661,2.6664,2.6651,2.6641,2.6642,2.6643,2.6665,2.6667,2.667,0,0,0,0,0,2.6776,2.6778,2.6771,2.6768,2.6748,2.6737,2.6734,2.6719,2.6713,2.6713,2.6699,2.6687,2.6666,2.6663,2.6659,2.6662,2.6641,2.6642,2.6643,2.6664,2.6667,2.667,0,0,0,0,0,0,2.6796,2.6775,2.6768,2.6764,2.6753,2.6733,2.6732,2.6722,2.6712,2.671,2.6691,2.6686,2.6681,2.6671,2.6668,2.6662,2.6652,2.6652,2.6669,2.6672,2.6674,2.6676,2.665,0,0,0,0,0,2.68,2.6795,2.6776,2.6774,2.677,2.6752,2.6747,2.6736,2.6724,2.6718,2.6705,2.6692,2.6683,2.6677,2.6667,2.6664,2.6659,2.6664,2.6667,2.6669,2.6669,2.6667,2.667,2.6646,2.6646,2.6646,0,0,2.6808,2.6796,2.6793,2.6778,2.6768,2.6763,2.6748,2.6742,2.6737,2.6717,2.671,2.67,2.6684,2.668,2.6677,2.6671,2.6675,2.667,2.6671,2.667,2.6669,2.6671,2.6673,2.6647,2.6646,2.6646,0,0,2.682,2.6811,2.6809,2.68,2.6786,2.6775,2.6774,2.6757,2.675,2.6743,2.6728,2.6722,2.6706,2.6696,2.6689,2.6699,2.6688,2.6697,2.6708,2.6707,2.6709,2.6711,2.6715,2.6717,2.6697,2.6697,2.6697,0,2.6832,2.6823,2.6808,2.6804,2.6798,2.6781,2.6779,2.6771,2.6754,2.675,2.6744,2.6725,2.6713,2.6707,2.671,2.6704,2.6703,2.6698,2.671,2.6712,2.6713,2.6717,2.6718,2.6698,2.6698,2.6698,2.6698,0,2.6838,2.6832,2.6832,2.6819,2.6812,2.6809,2.6794,2.6789,2.678,2.6769,2.6763,2.6749,2.6736,2.6734,2.6724,2.6726,2.6723,2.6714,2.6703,2.6717,2.672,2.6721,2.67,2.67,2.6699,2.6699,0,0,2.686,2.684,2.684,2.6834,2.6819,2.6814,2.681,2.6799,2.6796,2.6786,2.6782,2.677,2.6762,2.6754,2.6743,2.6742,2.6753,2.6733,2.6733,2.6738,2.6755,2.6762,2.6764,2.6745,2.6745,2.6746,2.6757,0,2.687,2.6863,2.6851,2.6848,2.6842,2.6828,2.6824,2.6814,2.6805,2.6799,2.6788,2.678,2.677,2.6765,2.6764,2.6752,2.6756,2.6751,2.6741,2.6741,2.6745,2.6766,2.6773,2.6784,2.6758,2.6758,2.6758,0,2.6879,2.6872,2.6869,2.6855,2.6852,2.685,2.684,2.6834,2.6823,2.6816,2.6809,2.6797,2.6792,2.6783,2.6776,2.6773,2.6769,2.6762,2.6762,2.676,2.675,2.6765,2.6787,2.6789,2.676,2.676,2.676,0,2.6897,2.6885,2.6882,2.6877,2.6861,2.686,2.6853,2.6841,2.6836,2.6828,2.6824,2.6815,2.6809,2.6802,2.6788,2.6783,2.6783,2.6773,2.6777,2.6778,2.6777,2.6777,2.6799,2.6775,2.6775,2.6775,2.6775,0,2.6908,2.6907,2.689,2.6888,2.6886,2.6872,2.6871,2.6863,2.6853,2.6849,2.6835,2.6832,2.6814,2.6808,2.6797,2.6794,2.6791,2.6785,2.6782,2.6787,2.6787,2.6783,2.6782,2.6775,2.6775,2.6775,2.6775,0,2.6927,2.6915,2.6911,2.6897,2.6893,2.6893,2.688,2.6878,2.6869,2.6864,2.6862,2.6847,2.684,2.6826,2.6814,2.6807,2.6806,2.6801,2.681,2.6808,2.6814,2.6814,2.6834,2.6836,2.681,2.681,2.6811,0,2.6935,2.6934,2.692,2.6917,2.6911,2.6907,2.6902,2.6889,2.6884,2.6873,2.6872,2.6864,2.6857,2.6846,2.6834,2.6825,2.682,2.6828,2.6818,2.6823,2.682,2.6821,2.6821,2.6829,2.683,2.683,2.683,0,2.6951,2.6946,2.694,2.6933,2.6929,2.6922,2.6915,2.6913,2.6898,2.6894,2.6887,2.6882,2.6871,2.6864,2.6854,2.6846,2.6836,2.6834,2.6834,2.6838,2.6844,2.6841,2.6816,2.6833,2.6833,2.6832,2.6832,2.6832,2.6964,2.6963,2.6954,2.6949,2.6942,2.6936,2.6934,2.6925,2.692,2.6911,2.6903,2.6898,2.6887,2.6873,2.6867,2.6862,2.6857,2.6857,2.6858,2.6858,2.686,2.6845,2.686,2.686,2.686,2.686,2.686,0,2.698,2.6974,2.6969,2.696,2.6956,2.6949,2.694,2.6937,2.6933,2.6925,2.6919,2.6912,2.6906,2.6894,2.6886,2.6884,2.6879,2.6883,2.6882,2.6881,2.6865,2.6865,2.6887,2.6887,2.6887,2.6887,2.6887,2.6887,2.6988,2.6986,2.698,2.6975,2.6969,2.6964,2.696,2.6955,2.6948,2.6942,2.6937,2.6929,2.692,2.6912,2.6905,2.6902,2.69,2.6905,2.69,2.6885,2.6882,2.688,2.688,2.6904,2.6904,2.6916,2.6916,2.6916]}]]